Location: Bremen
(53.0793°N, 8.8017°E)
Time: 12:15:24
(UTC+02:00)

Altair - Pass Details

Date: 15 April 2024
Orbit: 1501 x 1682 km, 47.2° (Epoch: 17 May)

Event Time Altitude Azimuth Distance (km) Brightness Sun altitude
Rises 21:32:42 0° 220° (SW) 4,898 10.3 -9.9°
Reaches altitude 10° 21:36:07 10° 214° (SSW) 3,895 9.6 -10.4°
Maximum altitude 21:45:05 41° 149° (SSE) 2,219 7.9 -11.5°
Drops below altitude 10° 21:53:47 10° 84° (E) 3,779 9.1 -12.5°
Sets 21:57:02 0° 78° (ENE) 4,740 9.7 -12.9°
